Weather History for Eau Claire, WI

Change the Weather History Date:

Friday, December 30, 2011

  Actual Average Record
Temperature  
Mean Temperature 24 °F 15 °F  
Max Temperature 31 °F 24 °F 49 °F (2004)
Min Temperature 16 °F 7 °F -22 °F (1976)
Degree Days  
Heating Degree Days 41 50  
Month to date heating degree days 1209 1381  
Since 1 July heating degree days 2717 3127  
Cooling Degree Days 0 0  
Month to date cooling degree days 0 0  
Year to date cooling degree days 655 579  
Moisture  
Dew Point 21 °F    
Average Humidity 81    
Maximum Humidity 92    
Minimum Humidity 69    
Precipitation  
Precipitation 0.00 in 0.02 in 0.52 in (1923)
Month to date precipitation 1.16 0.97  
Year to date precipitation 31.86 30.95  
Snow  
Snow 0.00 in 0.30 in 5.00 in (1923)
Month to date snowfall 6.6 9.2  
Since 1 July snowfall 7.8 15.5  
Snow Depth 0.00 in    
Sea Level Pressure  
Sea Level Pressure 29.75 in    
Wind  
Wind Speed 4 mph (NE)    
Max Wind Speed 9 mph    
Max Gust Speed 13 mph    
Visibility 9 miles    
Events      
T = Trace of Precipitation, MM = Missing Value Source: NWS Daily Summary

Daily Weather History Graph

Daily Weather History Graph

Search for Another Location

Airport:

Trip Planner

Search our weather history database for the weather conditions in past years. The results will help you decide how hot, cold, wet, or windy it might be!

Date:

Astronomy

Dec. 30, 2011 Rise Set
Actual Time 7:43 AM CST 4:33 PM CST
Civil Twilight 7:09 AM CST 5:07 PM CST
Nautical Twilight 6:32 AM CST 5:44 PM CST
Astronomical Twilight 5:57 AM CST 6:19 PM CST
Moon 10:46 AM CST (12/30) 11:27 PM CST (12/30)
Length of Visible Light 9h 57m
Length of Day
8h 49m
Waxing Crescent, 36% of the Moon is Illuminated
Dec 30
Waxing Crescent
Jan 1
First Quarter
Jan 9
Full
Jan 16
Last Quarter
Jan 23
New

Hourly Weather History & Observations

Time (CST) Temp. Windchill Dew Point Humidity Pressure Visibility Wind Dir Wind Speed Gust Speed Precip Events Conditions
12:56 AM 18.0 °F - 15.1 °F 88% 29.69 in 7.0 mi Calm Calm - N/A   Mostly Cloudy
1:56 AM 21.0 °F 14.6 °F 19.0 °F 92% 29.68 in 7.0 mi NE 4.6 mph - N/A   Overcast
2:56 AM 21.0 °F 13.4 °F 18.0 °F 88% 29.68 in 8.0 mi ENE 5.8 mph - N/A   Mostly Cloudy
3:56 AM 21.9 °F 15.7 °F 19.0 °F 89% 29.67 in 9.0 mi NE 4.6 mph - N/A   Scattered Clouds
4:56 AM 21.9 °F 15.7 °F 19.0 °F 89% 29.67 in 9.0 mi NE 4.6 mph - N/A   Partly Cloudy
5:56 AM 21.2 °F 13.6 °F 19.4 °F 93% 29.64 in 9.0 mi NE 5.8 mph - N/A   Clear
6:56 AM 21.9 °F 13.4 °F 19.9 °F 92% 29.68 in 9.0 mi NE 6.9 mph - N/A   Mostly Cloudy
7:56 AM 23.0 °F 15.8 °F 19.9 °F 88% 29.68 in 9.0 mi NE 5.8 mph - N/A   Overcast
8:56 AM 24.1 °F 17.0 °F 21.0 °F 88% 29.71 in 8.0 mi NE 5.8 mph - N/A   Overcast
9:56 AM 25.0 °F 16.3 °F 21.0 °F 85% 29.71 in 8.0 mi NE 8.1 mph - N/A   Overcast
10:56 AM 27.0 °F 19.5 °F 21.9 °F 81% 29.71 in 10.0 mi NE 6.9 mph - N/A   Overcast
11:56 AM 28.0 °F 20.8 °F 21.9 °F 78% 29.71 in 10.0 mi NNE 6.9 mph - N/A   Overcast
12:56 PM 28.9 °F 21.1 °F 21.9 °F 75% 29.71 in 10.0 mi NNE 8.1 mph - N/A   Overcast
1:56 PM 30.0 °F 22.4 °F 21.9 °F 72% 29.72 in 10.0 mi NE 8.1 mph - N/A   Overcast
2:56 PM 30.0 °F 23.2 °F 21.0 °F 69% 29.74 in 10.0 mi NE 6.9 mph - N/A   Overcast
3:56 PM 30.0 °F 25.2 °F 21.0 °F 69% 29.77 in 10.0 mi NE 4.6 mph - N/A   Overcast
4:56 PM 30.0 °F - 21.9 °F 72% 29.79 in 10.0 mi Calm Calm - N/A   Overcast
5:56 PM 28.9 °F - 21.9 °F 75% 29.82 in 10.0 mi Calm Calm - N/A   Overcast
6:56 PM 30.0 °F 26.5 °F 21.9 °F 72% 29.83 in 10.0 mi North 3.5 mph - N/A   Overcast
7:56 PM 28.9 °F - 21.9 °F 75% 29.85 in 10.0 mi Calm Calm - N/A   Overcast
8:56 PM 28.0 °F - 21.9 °F 78% 29.86 in 10.0 mi Calm Calm - N/A   Overcast
9:56 PM 28.0 °F - 21.9 °F 78% 29.87 in 10.0 mi Calm Calm - N/A   Overcast
10:56 PM 28.0 °F - 23.0 °F 81% 29.89 in 10.0 mi Calm Calm - N/A   Overcast
11:56 PM 28.9 °F - 23.0 °F 78% 29.86 in 10.0 mi Calm Calm - N/A   Overcast